Weather History for KLYH - September, 2012

Change the Weather History Date:

Saturday, September 8, 2012

  Actual Average Record
Temperature  
Mean Temperature 75 °F 70 °F  
Max Temperature 86 °F 81 °F 97 °F (1939)
Min Temperature 63 °F 59 °F 49 °F (1962)
Degree Days  
Heating Degree Days 0 1  
Month to date heating degree days 0 1  
Since 1 July heating degree days 0 4  
Cooling Degree Days 10 5  
Month to date cooling degree days 89 50  
Year to date cooling degree days 1208 948  
Growing Degree Days 24 (Base 50)    
Moisture  
Dew Point 63 °F    
Average Humidity 81    
Maximum Humidity 100    
Minimum Humidity 61    
Precipitation  
Precipitation 0.21 in 0.13 in 2.27 in (2004)
Month to date precipitation 1.14 1.05  
Year to date precipitation 23.69 28.98  
Snow  
Snow 0.00 in - - ()
Month to date snowfall 0.0  
Since 1 July snowfall 0.0  
Since 1 September snowfall 0.0  
Snow Depth 0.00 in    
Sea Level Pressure  
Sea Level Pressure 29.79 in    
Wind  
Wind Speed 5 mph (SW)    
Max Wind Speed 18 mph    
Max Gust Speed 32 mph    
Visibility 8 miles    
Events Rain    
T = Trace of Precipitation, MM = Missing Value Source: NWS Daily Summary

Daily Weather History Graph

Daily Weather History Graph

Search for Another Location

Airport or City:

Trip Planner

Search our weather history database for the weather conditions in past years. The results will help you decide how hot, cold, wet, or windy it might be!

Date:

Astronomy

Sep. 08, 2012 Rise Set
Actual Time 6:53 AM EDT 7:34 PM EDT
Civil Twilight 6:27 AM EDT 8:00 PM EDT
Nautical Twilight 5:55 AM EDT 8:31 PM EDT
Astronomical Twilight 5:23 AM EDT 9:03 PM EDT
Moon No Moon Rise 2:24 PM EDT (9/8)
Length of Visible Light 13h 33m
Length of Day
12h 41m
Waning Gibbous, 49% of the Moon is Illuminated
Sep 8
Waning Gibbous
Sep 15
New
Sep 22
First Quarter
Sep 29
Full
Oct 8
Last Quarter

Hourly Weather History & Observations

Time (EDT) Temp. Heat Index Dew Point Humidity Pressure Visibility Wind Dir Wind Speed Gust Speed Precip Events Conditions
12:54 AM 66.0 °F - 64.0 °F 93% 29.87 in 10.0 mi Calm Calm - N/A   Clear
1:54 AM 64.9 °F - 63.0 °F 93% 29.85 in 10.0 mi Calm Calm - N/A   Clear
2:54 AM 64.9 °F - 63.0 °F 93% 29.83 in 10.0 mi Calm Calm - N/A   Clear
3:54 AM 64.0 °F - 63.0 °F 96% 29.83 in 7.0 mi Calm Calm - N/A   Scattered Clouds
4:54 AM 64.9 °F - 64.0 °F 97% 29.81 in 2.0 mi Calm Calm - N/A   Partly Cloudy
5:08 AM 64.4 °F - 62.6 °F 94% 29.84 in 6.0 mi Calm Calm - N/A   Clear
5:26 AM 64.4 °F - 62.6 °F 94% 29.83 in 8.0 mi Calm Calm - N/A   Scattered Clouds
5:54 AM 64.9 °F - 64.0 °F 97% 29.79 in 4.0 mi Calm Calm - N/A   Partly Cloudy
6:24 AM 64.4 °F - 64.4 °F 100% 29.81 in 10.0 mi SSW 3.5 mph - N/A   Clear
6:54 AM 64.9 °F - 64.0 °F 97% 29.78 in 10.0 mi SSW 3.5 mph - N/A   Clear
7:16 AM 64.4 °F - 64.4 °F 100% 29.81 in 2.5 mi SSW 3.5 mph - N/A   Partly Cloudy
7:33 AM 64.4 °F - 64.4 °F 100% 29.81 in 3.0 mi SSW 3.5 mph - N/A   Partly Cloudy
7:54 AM 68.0 °F - 66.0 °F 93% 29.79 in 4.0 mi SSW 4.6 mph - N/A   Clear
8:07 AM 69.8 °F - 66.2 °F 88% 29.81 in 5.0 mi SSW 6.9 mph - N/A   Partly Cloudy
8:54 AM 70.0 °F - 66.9 °F 90% 29.78 in 10.0 mi SSW 8.1 mph - N/A   Partly Cloudy
9:54 AM 75.0 °F - 68.0 °F 79% 29.77 in 10.0 mi South 9.2 mph - N/A   Clear
10:54 AM 80.1 °F 83.2 °F 70.0 °F 71% 29.75 in 10.0 mi SW 10.4 mph 19.6 mph N/A   Clear
11:54 AM 84.0 °F 87.8 °F 69.1 °F 61% 29.73 in 10.0 mi South 15.0 mph 20.7 mph N/A   Clear
12:54 PM 82.9 °F 85.8 °F 68.0 °F 60% 29.72 in 10.0 mi SSW 10.4 mph - N/A   Mostly Cloudy
1:54 PM 84.0 °F 87.8 °F 69.1 °F 61% 29.71 in 10.0 mi SSW 11.5 mph 18.4 mph N/A   Mostly Cloudy
2:54 PM 82.9 °F 86.5 °F 69.1 °F 63% 29.69 in 10.0 mi SSW 8.1 mph 19.6 mph N/A   Scattered Clouds
3:54 PM 73.9 °F - 57.9 °F 57% 29.73 in 10.0 mi WNW 18.4 mph 29.9 mph 0.00 in Rain Light Rain
4:01 PM 69.8 °F - 59.0 °F 68% 29.77 in 10.0 mi West 11.5 mph 27.6 mph 0.00 in Rain Light Rain
4:10 PM 64.4 °F - 60.8 °F 88% 29.77 in 1.5 mi WNW 9.2 mph 21.9 mph 0.02 in Rain Heavy Rain
4:14 PM 64.4 °F - 60.8 °F 88% 29.78 in 0.8 mi Variable 4.6 mph 21.9 mph 0.13 in Rain Heavy Rain
4:22 PM 64.4 °F - 60.8 °F 88% 29.77 in 1.5 mi Calm Calm - 0.18 in Rain Heavy Rain
4:30 PM 64.4 °F - 60.8 °F 88% 29.77 in 3.0 mi Calm Calm - 0.21 in Rain Light Rain
4:54 PM 66.0 °F - 62.1 °F 87% 29.74 in 10.0 mi Calm Calm - 0.21 in Rain Light Rain
5:54 PM 69.1 °F - 63.0 °F 81% 29.74 in 10.0 mi WSW 4.6 mph - 0.00 in   Clear
6:54 PM 68.0 °F - 61.0 °F 78% 29.74 in 10.0 mi SW 4.6 mph - N/A   Overcast
7:54 PM 68.0 °F - 62.1 °F 81% 29.76 in 10.0 mi Variable 4.6 mph - N/A   Overcast
8:54 PM 66.9 °F - 62.1 °F 84% 29.79 in 10.0 mi Calm Calm - N/A   Mostly Cloudy
9:54 PM 68.0 °F - 59.0 °F 73% 29.83 in 10.0 mi Calm Calm - N/A   Clear
10:54 PM 66.9 °F - 57.0 °F 70% 29.87 in 10.0 mi NW 4.6 mph - N/A   Mostly Cloudy
11:54 PM 66.0 °F - 54.0 °F 65% 29.88 in 10.0 mi Variable 3.5 mph - N/A   Overcast